• In Hungary
  • List of Countries
  • For 7 days
  • Water Temperature
  • Satellite Maps
  • Weather Map
  • News
  • Weather Widgets
  • user-avatar
    Login

    Hourly Weather Vechrik

    Today, 25 September, Tuesday

    Time Temperature Precipitation Wind Pressure Humidity
    00:00 +15°C° 0 mm 2 mps 677 mmHg 74%
    01:00 +15°C° 0 mm 2 mps 677 mmHg 72%
    02:00 +15°C° 0 mm 2 mps 677 mmHg 71%
    03:00 +14°C° 0 mm 3 mps 676 mmHg 69%
    04:00 +14°C° 0 mm 3 mps 676 mmHg 68%
    05:00 +14°C° 0 mm 3 mps 676 mmHg 67%
    06:00 +14°C° 0 mm 3 mps 676 mmHg 65%
    07:00 +18°C° 0 mm 3 mps 676 mmHg 58%
    08:00 +21°C° 0 mm 3 mps 676 mmHg 51%
    09:00 +24°C° 0 mm 3 mps 677 mmHg 45%
    10:00 +25°C° 0 mm 3 mps 676 mmHg 43%
    11:00 +26°C° 0 mm 3 mps 676 mmHg 42%
    12:00 +27°C° 0 mm 3 mps 676 mmHg 41%
    13:00 +27°C° 0 mm 3 mps 676 mmHg 42%
    14:00 +27°C° 0 mm 3 mps 675 mmHg 43%
    15:00 +27°C° 0 mm 3 mps 675 mmHg 44%
    16:00 +25°C° 0 mm 3 mps 674 mmHg 53%
    17:00 +21°C° 0 mm 2 mps 674 mmHg 62%
    18:00 +19°C° 0 mm 2 mps 674 mmHg 71%
    19:00 +19°C° 0.1 mm 2 mps 674 mmHg 70%
    20:00 +19°C° 0.1 mm 2 mps 674 mmHg 68%
    21:00 +18°C° 0.1 mm 2 mps 675 mmHg 67%
    22:00 +18°C° 0.3 mm 2 mps 675 mmHg 66%
    23:00 +18°C° 0.3 mm 2 mps 675 mmHg 64%

    Tomorrow, 26 September, Wednesday

    Time Temperature Precipitation Wind Pressure Humidity
    00:00 +18°C° 0.3 mm 2 mps 675 mmHg 63%
    01:00 +18°C° 0 mm 2 mps 675 mmHg 65%
    02:00 +17°C° 0 mm 2 mps 675 mmHg 67%
    03:00 +17°C° 0 mm 2 mps 675 mmHg 69%
    04:00 +17°C° 0 mm 3 mps 675 mmHg 75%
    05:00 +16°C° 0 mm 3 mps 676 mmHg 82%
    06:00 +16°C° 0 mm 3 mps 676 mmHg 88%
    07:00 +17°C° 0.1 mm 4 mps 677 mmHg 84%
    08:00 +18°C° 0.1 mm 4 mps 677 mmHg 80%
    09:00 +19°C° 0.1 mm 5 mps 678 mmHg 77%
    10:00 +17°C° 0.1 mm 5 mps 678 mmHg 76%
    11:00 +17°C° 0.1 mm 5 mps 678 mmHg 76%
    12:00 +17°C° 0.1 mm 5 mps 678 mmHg 76%
    13:00 +16°C° 0.1 mm 5 mps 678 mmHg 77%
    14:00 +15°C° 0.1 mm 6 mps 678 mmHg 78%
    15:00 +15°C° 0.1 mm 6 mps 678 mmHg 78%
    16:00 +14°C° 0 mm 5 mps 679 mmHg 82%
    17:00 +13°C° 0 mm 5 mps 679 mmHg 85%
    18:00 +12°C° 0 mm 5 mps 679 mmHg 88%
    19:00 +12°C° 0 mm 4 mps 679 mmHg 88%
    20:00 +11°C° 0 mm 4 mps 680 mmHg 88%
    21:00 +11°C° 0 mm 3 mps 680 mmHg 88%
    22:00 +11°C° 0 mm 3 mps 680 mmHg 88%
    23:00 +11°C° 0 mm 3 mps 680 mmHg 87%

    Day after tomorrow, 27 September, Thursday

    Time Temperature Precipitation Wind Pressure Humidity
    00:00 +10°C° 0 mm 3 mps 680 mmHg 87%
    01:00 +10°C° 0 mm 3 mps 680 mmHg 87%
    02:00 +10°C° 0 mm 3 mps 680 mmHg 87%
    03:00 +10°C° 0 mm 3 mps 680 mmHg 86%
    04:00 +10°C° 0 mm 3 mps 680 mmHg 86%
    05:00 +10°C° 0 mm 3 mps 680 mmHg 85%
    06:00 +10°C° 0 mm 3 mps 680 mmHg 85%
    07:00 +11°C° 0 mm 3 mps 681 mmHg 79%
    08:00 +13°C° 0 mm 3 mps 681 mmHg 72%
    09:00 +14°C° 0 mm 4 mps 682 mmHg 66%
    10:00 +15°C° 0 mm 4 mps 682 mmHg 65%
    11:00 +15°C° 0 mm 4 mps 682 mmHg 63%
    12:00 +16°C° 0 mm 5 mps 682 mmHg 62%
    13:00 +15°C° 0 mm 5 mps 682 mmHg 64%
    14:00 +15°C° 0 mm 4 mps 681 mmHg 65%
    15:00 +14°C° 0 mm 4 mps 681 mmHg 67%
    16:00 +13°C° 0 mm 3 mps 681 mmHg 73%
    17:00 +13°C° 0 mm 2 mps 681 mmHg 78%
    18:00 +12°C° 0 mm 2 mps 681 mmHg 84%
    19:00 +12°C° 0 mm 1 mps 681 mmHg 84%
    20:00 +11°C° 0 mm 1 mps 681 mmHg 84%
    21:00 +11°C° 0 mm 1 mps 681 mmHg 84%
    22:00 +11°C° 0 mm 1 mps 681 mmHg 83%
    23:00 +11°C° 0 mm 1 mps 681 mmHg 82%

    28 September, Friday

    Time Temperature Precipitation Wind Pressure Humidity
    00:00 +11°C° 0 mm 1 mps 681 mmHg 82%
    01:00 +11°C° 0 mm 1 mps 681 mmHg 80%
    02:00 +11°C° 0 mm 1 mps 681 mmHg 79%
    03:00 +11°C° 0 mm 1 mps 681 mmHg 77%
    04:00 +11°C° 0 mm 1 mps 681 mmHg 76%
    05:00 +11°C° 0 mm 1 mps 681 mmHg 74%
    06:00 +11°C° 0 mm 1 mps 681 mmHg 73%
    07:00 +13°C° 0 mm 1 mps 681 mmHg 67%
    08:00 +15°C° 0 mm 2 mps 682 mmHg 61%
    09:00 +17°C° 0 mm 2 mps 682 mmHg 55%
    10:00 +18°C° 0 mm 2 mps 682 mmHg 55%
    11:00 +19°C° 0 mm 3 mps 682 mmHg 55%
    12:00 +20°C° 0 mm 3 mps 682 mmHg 55%
    13:00 +19°C° 0 mm 4 mps 682 mmHg 58%
    14:00 +19°C° 0 mm 4 mps 682 mmHg 62%
    15:00 +18°C° 0 mm 4 mps 681 mmHg 65%
    16:00 +17°C° 0 mm 3 mps 681 mmHg 73%
    17:00 +14°C° 0 mm 3 mps 681 mmHg 80%
    18:00 +13°C° 0 mm 3 mps 680 mmHg 88%
    19:00 +13°C° 0 mm 3 mps 680 mmHg 86%
    20:00 +13°C° 0 mm 3 mps 680 mmHg 84%
    21:00 +12°C° 0 mm 3 mps 680 mmHg 82%
    22:00 +12°C° 0 mm 3 mps 680 mmHg 80%
    23:00 +12°C° 0 mm 3 mps 680 mmHg 78%

    29 September, Saturday

    Time Temperature Precipitation Wind Pressure Humidity
    00:00 +12°C° 0 mm 3 mps 679 mmHg 75%
    01:00 +12°C° 0 mm 3 mps 679 mmHg 73%
    02:00 +12°C° 0 mm 3 mps 679 mmHg 71%
    03:00 +12°C° 0 mm 3 mps 678 mmHg 69%
    04:00 +12°C° 0 mm 3 mps 678 mmHg 67%
    05:00 +12°C° 0 mm 3 mps 678 mmHg 65%
    06:00 +12°C° 0 mm 3 mps 678 mmHg 63%
    07:00 +14°C° 0 mm 3 mps 678 mmHg 57%
    08:00 +18°C° 0 mm 2 mps 678 mmHg 51%
    09:00 +20°C° 0 mm 2 mps 678 mmHg 46%
    10:00 +21°C° 0 mm 2 mps 678 mmHg 45%
    11:00 +22°C° 0 mm 3 mps 678 mmHg 45%
    12:00 +24°C° 0 mm 3 mps 678 mmHg 44%
    13:00 +24°C° 0 mm 3 mps 677 mmHg 47%
    14:00 +24°C° 0 mm 3 mps 677 mmHg 49%
    15:00 +24°C° 0 mm 2 mps 676 mmHg 51%
    16:00 +21°C° 0 mm 2 mps 676 mmHg 60%
    17:00 +19°C° 0 mm 2 mps 676 mmHg 68%
    18:00 +18°C° 0 mm 1 mps 676 mmHg 77%
    19:00 +18°C° 0 mm 1 mps 676 mmHg 73%
    20:00 +18°C° 0 mm 1 mps 676 mmHg 69%
    21:00 +17°C° 0 mm 2 mps 676 mmHg 65%
    22:00 +17°C° 0 mm 2 mps 676 mmHg 61%
    23:00 +17°C° 0 mm 2 mps 675 mmHg 57%

    30 September, Sunday

    Time Temperature Precipitation Wind Pressure Humidity
    00:00 +17°C° 0 mm 2 mps 675 mmHg 53%
    01:00 +17°C° 0 mm 2 mps 675 mmHg 49%
    02:00 +17°C° 0 mm 2 mps 675 mmHg 45%
    03:00 +17°C° 0 mm 2 mps 675 mmHg 41%
    04:00 +17°C° 0 mm 2 mps 675 mmHg 40%
    05:00 +17°C° 0 mm 2 mps 675 mmHg 39%
    06:00 +17°C° 0 mm 2 mps 675 mmHg 38%
    07:00 +19°C° 0 mm 2 mps 676 mmHg 37%
    08:00 +21°C° 0 mm 2 mps 676 mmHg 36%
    09:00 +25°C° 0 mm 1 mps 677 mmHg 34%
    10:00 +25°C° 0 mm 2 mps 676 mmHg 36%
    11:00 +26°C° 0 mm 2 mps 676 mmHg 38%
    12:00 +26°C° 0 mm 3 mps 676 mmHg 39%
    13:00 +26°C° 0 mm 3 mps 676 mmHg 43%
    14:00 +25°C° 0 mm 3 mps 676 mmHg 47%
    15:00 +25°C° 0 mm 3 mps 676 mmHg 51%
    16:00 +23°C° 0 mm 2 mps 675 mmHg 60%
    17:00 +21°C° 0 mm 1 mps 675 mmHg 70%
    18:00 +19°C° 0 mm 1 mps 675 mmHg 80%
    19:00 +19°C° 0 mm 1 mps 675 mmHg 78%
    20:00 +18°C° 0 mm 1 mps 676 mmHg 76%
    21:00 +18°C° 0 mm 1 mps 676 mmHg 74%
    22:00 +18°C° 0 mm 1 mps 676 mmHg 73%
    23:00 +18°C° 0 mm 1 mps 676 mmHg 72%
    Show more